Weather in Chugunash

Russia / Kemerovo Oblast     52°52′28″N   87°46′48″E
temp.,
°C
wind,
m/s
gust,
m/s
humid.,
%
clouds,
%
prec.,
mm/h
press.,
hPa
HPBL,
m
21 april, wed
wed2101:00−10wsw009696 0.3 102816
04:00−11e009862 0.0 102711
07:00−9e01915 0.0 102673
10:00−4e1164100 0.0 10251013
13:000ene1153100 0.1 10221394
16:00+1n1148100 0.0 10211602
19:00−1nnw2265100 0.1 1023886
22:00−3nw1187100 0.0 102615
22 april, thu
thu2201:00−4nne0193100 0.1 1027141
04:00−4nne1491100 0.3 1028447
07:00−4e2778100 0.3 1030664
10:00−1ene3562100 0.1 10321254
13:00+1ne3455100 0.4 10331665
16:00+2ne4555100 0.4 10331440
19:00+1ne376386 0.9 1036745
22:00−2ne3107021 0.1 1039374
23 april, fri
fri2301:00−4ene397364 0.1 1039344
04:00−5ne2483100 0.0 1039198
07:00−4ne2579100 0.0 1039301
10:000ene4960100 0.0 10381376
13:00+3ene5852100 0.0 10361786
16:00+2e4859100 0.1 10351419
19:00+2ene3769100 0.1 10351101
22:00−1nw1191100 0.0 103529
24 april, sat
sat2401:00−2nnw119799 0.1 103436
04:00−2ne009899 0.1 103317
07:00−1sse1195100 0.5 1032160
10:00+1ssw2386100 0.8 1031600
13:00+2w2376100 1.5 10301011
16:00+3wnw346887 0.5 10301159
19:00+1wnw248299 0.6 1031372
22:000wsw1194100 0.1 103216
25 april, sun
sun2501:00−2sw119746 0.2 103216
04:00−3s119199 0.0 103240
07:00−1se008499 0.0 1032140
10:00+1wsw1272100 0.1 1032783
13:00+2w1271100 0.2 1031829
16:00+2wnw2374100 0.1 1031776
19:00+2wnw118245 0.3 1032493
22:00−1w118875 0.0 103311